FENGYUN 1C DEB

Satellite information

Favourite Embed

Satellite Type and Status

DEBRISIN ORBIT

Key statistics

Satellite FENGYUN 1C DEB at a glance.

Uptime

9495

Days in orbit

Revolutions

≈ 14.2

Per day

Orbit

SSO

Sun Synchronous Orbit

Inclination

99.0

Latest

Satellite identification and parameters

Extended collection of information and parameters for FENGYUN 1C DEB.

Object identification

Identified? True

Debris? True

Object name: FENGYUN 1C DEB

International designator: 1999-025DCF

Object number (NORAD): 33502

Object ID (CCSDS): 33502

Country: PEOPLES REPUBLIC OF CHINA (PRC)

Current information (Y/N): Y

RCS size: SMALL

Orbital parameters

Period: 101.471 minutes

Inclination: 99.0171 deg

SMA: 7206.466 km

Apoapsis: 891.12 km

Periapsis: 765.543 km

RAAN: 66.2968 deg

Eccentricy: 0.0087128

Argument of periapsis: 58.8997 deg

Mean anomaly: 3.0625 deg

Mean motion: 14.1912035 rev/day

Mean motion (dot): 0.00006365 rev/day2

B* drag term: 0.0029487 1/REarth

Two-line elements (TLE)

Creation date: May 8, 2025, 3:01 a.m.

Reference frame: TEME

Reference center: EARTH

Epoch: May 7, 2025, 7:54 p.m. UTC

TLE line 0: 0 FENGYUN 1C DEB

TLE line 1: 1 33502U 99025DCF 25127.82974229 .00006365 00000-0 29487-2 0 9990

TLE line 2: 2 33502 99.0171 66.2968 0087128 58.8997 3.0625 14.19120350838484

Live tracking on map

Real-time ground track for satellite FENGYUN 1C DEB.

In-orbit conjunctions

A list of the most updated potential collisions computed for object FENGYUN 1C DEB.

Target Orbit TCA Probability of collision Miss distance Type
SURCAL 159 LEO 2025-04-25 12:50:04 0.0001022136 37.0 (m) PAYLOAD
CZ-6A DEB LEO 2024-11-14 01:29:57 0.0001519101 522.0 (m) DEBRIS
CZ-6A DEB LEO 2024-10-28 08:57:28 0.0003218411 396.0 (m) DEBRIS
FENGYUN 1C DEB SSO 2024-09-23 05:42:30 0.0001092142 178.0 (m) DEBRIS
COSMOS 2251 DEB LEO 2024-09-19 10:20:07 0.0001439424 88.0 (m) DEBRIS

Associated space launch

Chinese polar orbiting meteorological satellite

FENGYUN 1C DEB was lifted into orbit during the mission ‘Long March 4B | Feng Yun 1C’, on board a Long March 4B space rocket.

The launch took place on May 10, 1999, 1:33 a.m. from Launch Complex 7.

For more information about the launch, click the button.

Launch to space Long March 4B | Feng Yun 1C
Long March 4B | Feng Yun 1C

Agency: N/A

Status: Launch Successful

Launch date: May 10, 1999, 1:33 a.m. UTC

Rocket: Long March 4B

Launch pad: Launch Complex 7

Location: Taiyuan Satellite Launch Center, People's Republic of China

...

Latest news about this satellite

There are no fresh news available about this satellite. Check back as we update our databases every day.


Newsletter sign-up

Weekly statistics, charts and insights to help you stay on top of the space industry.